小惑星1995 SN55

1995 SN55

English version
Home page
Updated on September 2, 2011

---------------------------------------------------------------------

・ プロフィール

発見日 1995年9月20日
発見光度 22.3等
発見者 N. Danzl, A. Gleason (Spacewatch Outer Solar System Survey)

・ 軌道要素

The following orbital elements are taken from MPC 35068:

Epoch 1995 Sept. 20.0 TT = JDT 2449980.5                Marsden
M 180.21705              (2000.0)            P               Q
n   0.00861662     Peri.   49.32750     -0.96890200     +0.24229922
a  23.5637755      Node   144.61090     -0.24501777     -0.91110401
e   0.6631306      Incl.    4.97274     -0.03457178     -0.33343751
P 114              H    6.0           G   0.15
From 14 observations 1995 Sept. 20-Oct. 26.  E-assumed.

・ 星図

・ 光度変化

        H = 6.0  G = 0.15

---------------------------------------------------------------------

軌道要素はMPCのEphemerides and Orbital Elementsに掲載されたものです。
星図はステラナビゲータ Ver.8 (アストロアーツ) で作成したものです。
光度グラフはComet for Windowsで作成したものです。

---------------------------------------------------------------------

Copyright(C) Seiichi Yoshida (comet@aerith.net). All rights reserved.